Regional Weather Roundup
Issued by NWS

Home | Current Version | Previous Version | Text Only | Print | Product List | Glossary Off
Versions: 1 2 3 4 5 6 7 8 9 10 11 12 13 14 15 16 17 18 19 20 21 22 23 24 25 26 27

000
ASUS45 KSLC 270910
RWRUT

UTAH REGIONAL WEATHER ROUNDUP
NATIONAL WEATHER SERVICE SALT LAKE CITY UT
300 AM MDT MON MAR 27 2017

UTZ001>011-023>025-271000-

NORTHERN UTAH

CITY           SKY/WX    TMP DP  RH WIND       PRES   REMARKS
BRIGHAM CITY     N/A     50  33  53 W10       29.92R
HILL AFB       CLOUDY    45  31  58 S9        29.90F
LOGAN          CLOUDY    44  39  82 NE6       29.92R
OGDEN          CLOUDY    44  32  62 S9        29.90S
SALT LAKE CITY MOCLDY    49  34  56 SE6       29.90S
WENDOVER       MOCLDY    45  37  73 NW6       29.88F
HEBER CITY     CLOUDY    37  32  81 CALM      29.92F

$$

UTZ011>015-024>027-271000-

CENTRAL/NORTHEAST UTAH

CITY           SKY/WX    TMP DP  RH WIND       PRES   REMARKS
PROVO AIRPORT  CLOUDY    44  36  73 SE6       29.93S
MOAB/CANYONLAN CLOUDY    40  28  62 CALM      29.91S
DELTA          PTCLDY    45  32  61 S8        29.91S
PRICE          CLOUDY    42  28  57 CALM      29.93F
RICHFIELD      MOCLDY    39  36  87 CALM      29.96F
ROOSEVELT      CLOUDY    46  30  53 NW6       29.95F
VERNAL         CLOUDY    41  32  70 CALM      29.95S

$$

UTZ013>016-019>022-027-271000-

SOUTHERN UTAH

CITY           SKY/WX    TMP DP  RH WIND       PRES   REMARKS
BRYCE CANYON   MOCLDY    30  25  81 VRB3      30.01F
CEDAR CITY     CLOUDY    43  33  68 CALM      29.93F
MILFORD        CLOUDY    46  33  60 S12       29.92F
ST GEORGE      CLOUDY    53  32  44 SE8       29.90F
HANKSVILLE     CLOUDY    41  28  60 SE3       29.94F
KANAB          MOCLDY    37  34  87 NE3       30.01F
BLANDING       CLEAR     34  21  60 N5        30.05F WCI  29

$$

REGIONAL REPORTS     COLORADO/ARIZONA

CITY           SKY/WX    TMP DP  RH WIND       PRES   REMARKS
CRAIG, CO      CLOUDY    28  24  85 CALM      29.98S
GRAND JUNCTION CLOUDY    46  28  49 SE9       29.94F
RIFLE, CO      CLOUDY    35  27  72 CALM      29.98F
MONTROSE, CO   CLOUDY    40  31  70 SE10      30.00F WCI  33
CORTEZ, CO     PTCLDY    32  29  88 E5        30.01S WCI  27
COLORADO CITY  CLOUDY    41  36  81 S3        29.99F
PAGE, AZ       PTCLDY    49  31  49 CALM      29.93F
GRAND CANYON   CLEAR     28  26  92 CALM      30.04F
KINGMAN, AZ    PTCLDY    45  28  51 SE5       29.93F
FLAGSTAFF, AZ  CLEAR     30  24  78 CALM      30.05F

$$

REGIONAL REPORTS    NEVADA/IDAHO/WYOMING

CITY           SKY/WX    TMP DP  RH WIND       PRES   REMARKS
LAS VEGAS, NV  PTCLDY    64  34  32 S8        29.83F
ELY, NY        CLEAR     39  31  72 S10       29.92S WCI  32
ELKO, NV       PTCLDY    38  32  79 N5        29.89F WCI  34
POCATELLO, ID  CLOUDY    42  37  82 SW5       29.90F
BURLEY, ID     MOCLDY    38  35  89 CALM      29.87S
EVANSTON, WY   CLOUDY    34  23  64 SW5       29.94F WCI  30
ROCK SPRINGS,  CLOUDY    37  26  64 SW6       29.95F WCI  32
KEMMERER, WY     N/A     32  27  80 CALM      29.96S

$$




USA.gov is the U.S. government's official web portal to all federal, state and local government web resources and services.